Amateur Radio Satellites - All Passes

Search period start: 19 June 2013 11:41
Search period end: 20 June 2013 11:41
Location: Pinawa, 50.1500°N, 95.8830°W

Satellite Date Start Highest point End Downlink Frequencies (MHz)
Time Altitude Azimuth
Oscar 11 19 Jun 11:42:42 11:47:06 73° 287° (WNW) 11:51:27 145.825 FM, Beacon 2401.500 USB
UOSAT-12 19 Jun 11:57:02 12:01:19 36° 37° (NE) 12:05:36 437.025 FM, 437.400 FM
SO-50 19 Jun 11:58:46 12:01:11 14° 250° (WSW) 12:03:35 436.795 FM
PCSat 19 Jun 11:58:59 12:02:36 18° 254° (WSW) 12:06:11 145.825 MHz
ITAMSAT 1 19 Jun 12:20:32 12:22:03 11° 48° (NE) 12:23:34 435.822 SSB
AO-27 19 Jun 12:21:23 12:23:09 12° 49° (NE) 12:24:54 436.795 MHz FM
OPAL 19 Jun 12:23:26 12:28:23 67° 105° (ESE) 12:33:21 ?
HO-68 19 Jun 12:33:45 12:40:18 40° 302° (WNW) 12:46:49 435.675 MHz FM
Oscar 16 19 Jun 12:38:01 12:41:38 20° 56° (NE) 12:45:14 437.025 USB, Beacon 2401.1428
JAS-2 19 Jun 12:41:26 12:45:57 26° 303° (WNW) 12:50:12 435.800 - 435.900 CW/SSB, 435.910 FM
Uribyol 2 19 Jun 12:51:28 12:55:07 20° 56° (NE) 12:58:47 436.500 FM
RS-15 19 Jun 12:56:40 13:08:31 75° 123° (ESE) 13:19:50 29.354 - 29.394 USB, Beacon 29.352 USB
Oscar 11 19 Jun 13:21:04 13:22:33 12° 306° (NW) 13:24:02 145.825 FM, Beacon 2401.500 USB
Oscar 19 19 Jun 13:30:33 13:35:21 41° 66° (ENE) 13:40:10 437.125 CW, 437.150 USB
UOSAT-12 19 Jun 13:37:12 13:41:37 46° 238° (WSW) 13:46:01 437.025 FM, 437.400 FM
ITAMSAT 1 19 Jun 13:55:25 14:00:29 54° 68° (ENE) 14:05:36 435.822 SSB
AO-27 19 Jun 13:56:32 14:01:37 57° 69° (ENE) 14:06:46 436.795 MHz FM
Gurwin Techsat 1B 19 Jun 13:56:57 13:58:53 12° 49° (NE) 14:00:48 435.225 FM
OPAL 19 Jun 14:03:08 14:06:53 22° 305° (NW) 14:10:38 ?
Oscar 16 19 Jun 14:15:15 14:20:26 80° 256° (WSW) 14:25:38 437.025 USB, Beacon 2401.1428
HO-68 19 Jun 14:23:43 14:26:07 12° 325° (NW) 14:28:31 435.675 MHz FM
Uribyol 2 19 Jun 14:28:47 14:34:01 81° 255° (WSW) 14:39:18 436.500 FM
AO-Echo 19 Jun 14:32:32 14:36:59 43° 67° (ENE) 14:41:35 ?
AO-7 19 Jun 14:39:15 14:44:50 20° 38° (NE) 14:50:24 29.400 - 29.500 MHz
Uosat F 19 Jun 14:52:26 14:56:46 30° 62° (ENE) 15:01:09 435.120 FM
TMSAT-1 19 Jun 14:53:39 14:57:39 22° 58° (ENE) 15:01:39 436.925 FM
Oscar 19 19 Jun 15:10:09 15:14:48 33° 265° (W) 15:19:29 437.125 CW, 437.150 USB
RS-15 19 Jun 15:10:23 15:21:46 52° 331° (NNW) 15:32:41 29.354 - 29.394 USB, Beacon 29.352 USB
Gurwin Techsat 1B 19 Jun 15:32:37 15:37:48 58° 69° (ENE) 15:43:02 435.225 FM
ITAMSAT 1 19 Jun 15:36:02 15:40:19 25° 268° (W) 15:44:38 435.822 SSB
AO-27 19 Jun 15:37:19 15:41:31 24° 268° (W) 15:45:45 436.795 MHz FM
Oscar 16 19 Jun 15:58:28 16:00:40 13° 275° (W) 16:02:52 437.025 USB, Beacon 2401.1428
AO-Echo 19 Jun 16:11:56 16:15:59 28° 267° (W) 16:20:08 ?
Uribyol 2 19 Jun 16:11:59 16:14:23 13° 275° (W) 16:16:47 436.500 FM
ISS 19 Jun 16:20:16 16:22:21 16° 140° (SE) 16:24:27 145.800 FM
AO-7 19 Jun 16:27:56 16:36:03 60° 62° (ENE) 16:44:14 29.400 - 29.500 MHz
Uosat F 19 Jun 16:30:38 16:35:26 45° 261° (W) 16:40:17 435.120 FM
TMSAT-1 19 Jun 16:31:49 16:37:06 71° 257° (WSW) 16:42:27 436.925 FM
KITSAT 1 19 Jun 17:06:28 17:12:55 27° 106° (ESE) 17:19:24 435.175 FM
Gurwin Techsat 1B 19 Jun 17:13:53 17:18:10 24° 269° (W) 17:22:28 435.225 FM
RS-15 19 Jun 17:26:42 17:37:13 39° 4° (N) 17:47:21 29.354 - 29.394 USB, Beacon 29.352 USB
JAS-1B 19 Jun 17:27:06 17:28:42 11° 45° (NE) 17:30:17 435.800 - 435.900 CW/SSB
Hamsat 19 Jun 17:51:23 17:53:26 13° 56° (NE) 17:55:29 145.90 MHz
ISS 19 Jun 17:55:19 17:58:34 65° 158° (SSE) 18:01:51 145.800 FM
TMSAT-1 19 Jun 18:16:26 18:18:02 11° 277° (W) 18:19:39 436.925 FM
AO-7 19 Jun 18:21:33 18:29:13 40° 263° (W) 18:36:59 29.400 - 29.500 MHz
STRAND 1 19 Jun 18:50:21 18:54:09 20° 90° (E) 18:57:55 ?
KITSAT 1 19 Jun 18:59:21 19:07:28 85° 308° (NW) 19:15:39 435.175 FM
JAS-1B 19 Jun 19:11:52 19:18:14 52° 67° (ENE) 19:23:53 435.800 - 435.900 CW/SSB
Hamsat 19 Jun 19:24:27 19:28:49 85° 75° (ENE) 19:33:15 145.90 MHz
JAS-2 19 Jun 19:31:44 19:34:13 12° 46° (NE) 19:36:37 435.800 - 435.900 CW/SSB, 435.910 FM
ISS 19 Jun 19:32:02 19:35:19 65° 358° (N) 19:38:35 145.800 FM
HO-68 19 Jun 19:34:42 19:39:21 19° 44° (NE) 19:44:00 435.675 MHz FM
RS-15 19 Jun 19:41:08 19:52:17 60° 36° (NE) 20:03:02 29.354 - 29.394 USB, Beacon 29.352 USB
SO-67 19 Jun 20:02:50 20:06:24 74° 75° (ENE) 20:10:00 435.3500 MHz FM
MaSat-1 19 Jun 20:20:08 20:25:10 48° 117° (ESE) 20:29:06 437.345 MHz
STRAND 1 19 Jun 20:28:42 20:33:51 67° 289° (WNW) 20:38:57 ?
AO-40 19 Jun 20:51:37 02:39:09 35° 177° (S) 08:15:17 Beacon 2401.320
KITSAT 1 19 Jun 20:56:41 21:03:59 35° 334° (NNW) 21:11:21 435.175 FM
JAS-1B 19 Jun 21:03:20 21:09:11 31° 265° (W) 21:14:27 435.800 - 435.900 CW/SSB
Hamsat 19 Jun 21:03:43 21:05:32 12° 274° (W) 21:07:22 145.90 MHz
Oscar 11 19 Jun 21:07:31 21:10:51 22° 61° (ENE) 21:14:13 145.825 FM, Beacon 2401.500 USB
ISS 19 Jun 21:08:49 21:12:07 84° 198° (SSW) 21:15:24 145.800 FM
JAS-2 19 Jun 21:11:12 21:18:01 48° 66° (ENE) 21:24:08 435.800 - 435.900 CW/SSB, 435.910 FM
HO-68 19 Jun 21:18:47 21:25:50 66° 66° (ENE) 21:32:56 435.675 MHz FM
SO-67 19 Jun 21:40:01 21:40:21 10° 273° (W) 21:40:41 435.3500 MHz FM
Saudisat 1A 19 Jun 21:49:24 21:51:22 13° 109° (ESE) 21:53:21 436.775 MHz
RS-15 19 Jun 21:54:02 22:04:44 57° 243° (WSW) 22:15:12 29.354 - 29.394 USB, Beacon 29.352 USB
MaSat-1 19 Jun 22:03:03 22:07:04 26° 310° (NW) 22:10:21 437.345 MHz
OPAL 19 Jun 22:05:09 22:09:36 33° 61° (ENE) 22:14:02 ?
STRAND 1 19 Jun 22:09:44 22:12:09 13° 309° (NW) 22:14:32 ?
Oscar 11 19 Jun 22:42:32 22:46:47 51° 260° (W) 22:51:05 145.825 FM, Beacon 2401.500 USB
ISS 19 Jun 22:45:50 22:48:29 23° 216° (SW) 22:51:08 145.800 FM
KITSAT 1 19 Jun 22:55:25 23:02:00 26° 3° (N) 23:08:36 435.175 FM
JAS-2 19 Jun 22:56:24 23:03:10 41° 263° (W) 23:09:17 435.800 - 435.900 CW/SSB, 435.910 FM
HO-68 19 Jun 23:07:54 23:14:03 31° 267° (W) 23:20:16 435.675 MHz FM
Saudisat 1A 19 Jun 23:25:44 23:30:19 77° 128° (SE) 23:34:56 436.775 MHz
Oscar 10/S400 19 Jun 23:38:40 06:26:29 47° 119° (ESE) 09:28:48 145.825 - 145.975 CW/USB, Beacon 145.810 USB
OPAL 19 Jun 23:43:43 23:48:26 41° 260° (W) 23:53:09 ?
RS-15 20 Jun 00:09:43 00:14:17 14° 267° (W) 00:18:50 29.354 - 29.394 USB, Beacon 29.352 USB
KITSAT 1 20 Jun 00:52:16 00:59:51 40° 31° (NNE) 01:07:25 435.175 FM
PCSat 20 Jun 01:01:24 01:06:03 30° 112° (ESE) 01:10:43 145.825 MHz
Saudisat 1A 20 Jun 01:06:36 01:10:30 26° 329° (NNW) 01:14:25 436.775 MHz
Sapphire 20 Jun 01:35:16 01:40:28 50° 118° (ESE) 01:45:43 437.095 MHz 1200 baud AX-25 AFSK
ITAMSAT 1 20 Jun 02:05:18 02:07:52 14° 86° (E) 02:10:25 435.822 SSB
AO-27 20 Jun 02:06:25 02:09:12 14° 86° (E) 02:11:57 436.795 MHz FM
SO-50 20 Jun 02:16:14 02:20:55 60° 125° (SE) 02:25:32 436.795 FM
Oscar 16 20 Jun 02:22:49 02:27:07 26° 93° (E) 02:31:22 437.025 USB, Beacon 2401.1428
Uribyol 2 20 Jun 02:37:25 02:41:47 26° 93° (E) 02:46:07 436.500 FM
AO-Echo 20 Jun 02:37:35 02:38:28 10° 84° (E) 02:39:21 ?
PCSat 20 Jun 02:43:52 02:49:13 57° 312° (NW) 02:54:36 145.825 MHz
KITSAT 1 20 Jun 02:47:53 02:56:02 80° 236° (SW) 03:04:09 435.175 FM
Saudisat 1A 20 Jun 02:49:17 02:51:43 14° 353° (N) 02:54:08 436.775 MHz
Oscar 19 20 Jun 03:16:21 03:21:28 63° 102° (ESE) 03:26:32 437.125 CW, 437.150 USB
Sapphire 20 Jun 03:19:03 03:24:05 38° 319° (NW) 03:29:10 437.095 MHz 1200 baud AX-25 AFSK
ITAMSAT 1 20 Jun 03:42:55 03:48:12 84° 105° (ESE) 03:53:26 435.822 SSB
AO-27 20 Jun 03:44:14 03:49:31 87° 106° (ESE) 03:54:45 436.795 MHz FM
Gurwin Techsat 1B 20 Jun 03:45:16 03:48:34 16° 87° (E) 03:51:50 435.225 FM
UOSAT-12 20 Jun 03:54:17 03:57:17 18° 112° (ESE) 04:00:18 437.025 FM, 437.400 FM
SO-50 20 Jun 03:57:38 04:01:51 31° 326° (NW) 04:06:01 436.795 FM
Oscar 16 20 Jun 04:01:47 04:06:46 51° 292° (WNW) 04:11:42 437.025 USB, Beacon 2401.1428
AO-Echo 20 Jun 04:13:04 04:18:11 67° 102° (ESE) 04:23:25 ?
Uribyol 2 20 Jun 04:16:30 04:21:35 52° 292° (WNW) 04:26:37 436.500 FM
AO-7 20 Jun 04:26:56 04:30:10 13° 81° (E) 04:33:24 29.400 - 29.500 MHz
PCSat 20 Jun 04:29:57 04:33:49 19° 335° (NNW) 04:37:42 145.825 MHz
Saudisat 1A 20 Jun 04:30:11 04:33:12 17° 18° (NNE) 04:36:11 436.775 MHz
Uosat F 20 Jun 04:33:31 04:38:18 40° 98° (E) 04:43:03 435.120 FM
TMSAT-1 20 Jun 04:43:12 04:48:01 34° 95° (E) 04:52:47 436.925 FM
KITSAT 1 20 Jun 04:44:36 04:50:14 21° 258° (WSW) 04:55:52 435.175 FM
Oscar 19 20 Jun 04:56:27 05:00:26 23° 301° (WNW) 05:04:25 437.125 CW, 437.150 USB
MaSat-1 20 Jun 04:58:16 05:00:51 44° 54° (NE) 05:03:16 437.345 MHz
Sapphire 20 Jun 05:05:52 05:09:07 16° 343° (NNW) 05:12:22 437.095 MHz 1200 baud AX-25 AFSK
ITAMSAT 1 20 Jun 05:23:31 05:27:06 19° 305° (NW) 05:30:41 435.822 SSB
Gurwin Techsat 1B 20 Jun 05:23:53 05:29:15 84° 286° (WNW) 05:34:34 435.225 FM
AO-27 20 Jun 05:24:55 05:28:24 18° 305° (NW) 05:31:53 436.795 MHz FM
UOSAT-12 20 Jun 05:32:23 05:36:55 78° 312° (NW) 05:41:31 437.025 FM, 437.400 FM
SO-50 20 Jun 05:41:14 05:43:53 15° 349° (N) 05:46:30 436.795 FM
Oscar 16 20 Jun 05:44:22 05:45:01 10° 312° (NW) 05:45:40 437.025 USB, Beacon 2401.1428
AO-Echo 20 Jun 05:52:41 05:56:34 23° 301° (WNW) 06:00:32 ?
Uribyol 2 20 Jun 05:58:43 05:59:58 11° 312° (NW) 06:01:13 436.500 FM
Saudisat 1A 20 Jun 06:09:35 06:14:00 45° 41° (NE) 06:18:20 436.775 MHz
STRAND 1 20 Jun 06:10:36 06:15:29 46° 67° (ENE) 06:20:25 ?
Uosat F 20 Jun 06:12:32 06:17:03 34° 297° (WNW) 06:21:33 435.120 FM
AO-7 20 Jun 06:16:40 06:24:56 57° 103° (ESE) 06:33:06 29.400 - 29.500 MHz
PCSat 20 Jun 06:16:55 06:19:29 13° 2° (N) 06:22:02 145.825 MHz
TMSAT-1 20 Jun 06:23:04 06:28:04 42° 294° (WNW) 06:33:01 436.925 FM
Sapphire 20 Jun 06:52:03 06:54:53 14° 10° (N) 06:57:43 437.095 MHz 1200 baud AX-25 AFSK
Gurwin Techsat 1B 20 Jun 07:05:12 07:08:30 17° 306° (NW) 07:11:47 435.225 FM
Hamsat 20 Jun 07:08:20 07:10:10 12° 86° (E) 07:11:59 145.90 MHz
UOSAT-12 20 Jun 07:14:14 07:17:48 22° 334° (NNW) 07:21:24 437.025 FM, 437.400 FM
SO-50 20 Jun 07:23:28 07:26:19 16° 15° (NNE) 07:29:08 436.795 FM
Saudisat 1A 20 Jun 07:49:31 07:53:37 33° 241° (WSW) 07:57:38 436.775 MHz
STRAND 1 20 Jun 07:50:26 07:54:53 29° 266° (W) 07:59:23 ?
PCSat 20 Jun 08:00:54 08:05:03 22° 28° (NNE) 08:09:11 145.825 MHz
AO-7 20 Jun 08:09:48 08:17:33 44° 304° (NW) 08:25:17 29.400 - 29.500 MHz
Sapphire 20 Jun 08:35:28 08:40:11 29° 35° (NE) 08:44:53 437.095 MHz 1200 baud AX-25 AFSK
JAS-1B 20 Jun 08:40:13 08:45:52 51° 100° (E) 08:52:09 435.800 - 435.900 CW/SSB
Hamsat 20 Jun 08:42:27 08:46:53 85° 285° (WNW) 08:51:15 145.90 MHz
UOSAT-12 20 Jun 08:57:20 08:59:37 13° 358° (N) 09:01:55 437.025 FM, 437.400 FM
SO-67 20 Jun 08:58:26 09:01:58 50° 99° (E) 09:05:28 435.3500 MHz FM
SO-50 20 Jun 09:03:52 09:08:11 39° 38° (NE) 09:12:25 436.795 FM
PCSat 20 Jun 09:44:01 09:49:29 69° 51° (NE) 09:54:53 145.825 MHz
JAS-2 20 Jun 10:01:31 10:05:38 21° 89° (E) 10:09:35 435.800 - 435.900 CW/SSB, 435.910 FM
AO-7 20 Jun 10:03:53 10:08:17 16° 329° (NNW) 10:12:40 29.400 - 29.500 MHz
RS-15 20 Jun 10:16:15 10:22:41 17° 95° (E) 10:28:57 29.354 - 29.394 USB, Beacon 29.352 USB
Sapphire 20 Jun 10:18:43 10:24:10 75° 237° (WSW) 10:29:35 437.095 MHz 1200 baud AX-25 AFSK
Hamsat 20 Jun 10:20:13 10:22:16 13° 304° (NW) 10:24:19 145.90 MHz
Oscar 11 20 Jun 10:26:23 10:29:47 21° 92° (E) 10:33:09 145.825 FM, Beacon 2401.500 USB
HO-68 20 Jun 10:28:56 10:35:46 44° 98° (E) 10:42:33 435.675 MHz FM
JAS-1B 20 Jun 10:31:27 10:36:28 32° 299° (WNW) 10:41:53 435.800 - 435.900 CW/SSB
SO-67 20 Jun 10:32:51 10:35:04 16° 298° (WNW) 10:37:17 435.3500 MHz FM
UOSAT-12 20 Jun 10:38:08 10:41:31 20° 23° (NNE) 10:44:53 437.025 FM, 437.400 FM
SO-50 20 Jun 10:44:35 10:48:51 40° 239° (WSW) 10:53:03 436.795 FM
PCSat 20 Jun 11:28:11 11:32:27 24° 251° (WSW) 11:36:42 145.825 MHz

Developed and maintained by Chris Peat, Heavens-Above GmbH. Please read the updated FAQ before sending e-mail. Imprint. DLR
